This is the latest recevied weather packets stored in our database for station/object NC4J. If no packets are shown the sender has not sent any weather packets the latest 10 day(s).
| Time | Temp. | Humidity | Pressure | Rain* | Wind** | Luminosity | Snow |
|---|---|---|---|---|---|---|---|
| 1777758408 | 15° C | 33% | 1012.9 hPa | 0 mm | - | 242 W/m² | - |
| 1777758106 | 14.44° C | 35% | 1012.8 hPa | 0 mm | - | 350 W/m² | - |
| 1777757803 | 13.89° C | 35% | 1012.8 hPa | 0 mm | - | 126 W/m² | - |
| 1777757500 | 13.33° C | 35% | 1012.6 hPa | 0 mm | - | 54 W/m² | - |
| 1777757199 | 13.33° C | 36% | 1012.8 hPa | 0 mm | - | 35 W/m² | - |
| 1777756897 | 13.89° C | 36% | 1012.9 hPa | 0 mm | - | 39 W/m² | - |
| 1777756592 | 13.89° C | 33% | 1012.8 hPa | 0 mm | - | 35 W/m² | - |
| 1777756289 | 14.44° C | 32% | 1012.6 hPa | 0 mm | - | 41 W/m² | - |
| 1777755987 | 14.44° C | 39% | 1012.8 hPa | 0 mm | - | 62 W/m² | - |
| 1777755684 | 14.44° C | 32% | 1012.5 hPa | 0 mm | - | 46 W/m² | - |
| 1777755380 | 15° C | 33% | 1012.5 hPa | 0 mm | - | 47 W/m² | - |
| 1777755077 | 15° C | 32% | 1012.5 hPa | 0 mm | - | 59 W/m² | - |
| 1777754774 | 15° C | 33% | 1012.8 hPa | 0 mm | - | 127 W/m² | - |
| 1777754471 | 15.56° C | 32% | 1012.8 hPa | 0 mm | - | 77 W/m² | - |
| 1777754169 | 15° C | 33% | 1012.2 hPa | 0 mm | - | 79 W/m² | - |
| 1777753866 | 15° C | 33% | 1012.6 hPa | 0 mm | - | 93 W/m² | - |
| 1777753561 | 15° C | 33% | 1012.4 hPa | 0 mm | - | 76 W/m² | - |
| 1777753260 | 15.56° C | 31% | 1012.4 hPa | 0 mm | - | 83 W/m² | - |
| 1777752955 | 15° C | 32% | 1012.6 hPa | 0 mm | - | 151 W/m² | - |
| 1777752652 | 15° C | 37% | 1012.6 hPa | 0 mm | - | 130 W/m² | - |
| 1777752348 | 15.56° C | 31% | 1012.5 hPa | 0 mm | - | 114 W/m² | - |
| 1777752046 | 15.56° C | 32% | 1012.5 hPa | 0 mm | - | 651 W/m² | - |
| 1777751743 | 15.56° C | 35% | 1012.5 hPa | 0 mm | - | 433 W/m² | - |
| 1777751439 | 15.56° C | 30% | 1012.5 hPa | 0 mm | - | 685 W/m² | - |
| 1777751136 | 15.56° C | 33% | 1012.5 hPa | 0 mm | - | 121 W/m² | - |
* Rain latest hour (hover to see other rain measurements)
** Current wind speed in m/s (hover to see current wind gust speed)